CLUSTER II-FM8 (TANGO)

Last updated on Fri Jul 11 2025 00:03:28 GMT+0000 (Coordinated Universal Time)

1 26464U 00045B 25193.43508018 .00002734 00000+0 00000+0 0 9994 2 26464 145.1137 13.6445 8440363 228.8568 359.3185 0.44423226 18792
UTC large
Height (km)
Speed (km/s)
/
Latitude / Longitude
Inclination (degrees)
Orbital Period (minutes)
Azimuth
Elevation
Range (km)
Doppler Factor

Next 0 passes for location: London (51.5072 / 0.1276)

Sorry there are no passes over London.